Wind_Speed
20 19 19 18 17 18 18 19 19 19 19 19 20 20 21 22 22 23 24 24 25 25 24 25 26 26 27 27 28 28 28 29 29 30 31 32 34 34 34 34 35 36 36
18 17 17 17 18 17 17 18 17 17 18 19 20 21 22 23 23 23 23 24 24 24 24 24 24 25 25 26 26 27 27 27 27 27 28 29 30 32 33 33 34 34 34
16 15 16 17 18 17 17 16 16 16 17 19 20 20 21 22 22 22 22 23 23 23 23 24 24 24 24 25 25 26 25 26 26 26 26 27 28 30 31 32 32 32 33
14 14 15 17 18 18 17 15 15 15 17 19 20 20 20 21 21 21 22 23 23 23 23 24 24 23 23 23 24 24 24 24 24 25 25 26 27 28 29 30 31 31 31
14 14 15 16 17 17 16 15 15 16 17 18 19 19 19 20 21 21 22 22 22 23 23 23 23 23 24 24 24 24 23 24 25 25 26 26 26 28 28 28 29 30 31
13 14 15 15 15 16 16 16 16 16 17 18 18 19 20 20 21 21 21 22 23 23 23 23 23 23 23 23 23 23 24 24 25 25 25 26 27 27 27 27 28 29 30
14 14 14 14 15 16 16 15 15 16 17 17 17 19 20 21 21 21 22 22 22 23 23 22 22 22 23 23 23 23 24 24 24 25 25 25 26 26 26 27 27 28 29
14 14 14 14 15 15 14 14 15 16 17 17 17 18 20 20 21 22 22 23 23 23 23 23 22 23 23 23 23 23 23 23 23 24 24 24 25 25 25 26 27 28 28
14 14 15 14 15 15 14 14 15 16 17 17 18 19 20 22 22 23 23 23 24 24 24 24 23 23 24 24 24 24 23 23 23 23 24 24 25 25 25 26 26 26 27
14 14 14 14 14 15 15 15 16 17 18 18 19 20 21 23 24 24 24 25 25 25 25 24 24 25 25 25 25 24 24 23 23 22 22 23 24 24 25 25 25 25 25
14 14 14 15 15 15 15 16 17 18 19 19 20 22 23 25 26 26 26 26 25 25 25 25 25 26 26 26 26 25 24 23 22 22 22 22 23 23 23 24 24 25 25
14 14 14 14 15 15 16 17 18 19 19 20 21 22 24 25 26 26 26 26 25 25 25 26 27 27 27 27 26 26 25 24 23 22 22 23 23 24 24 24 24 24 24
14 14 14 15 16 16 17 18 19 19 20 21 22 23 24 25 26 26 26 25 25 26 27 27 28 28 27 27 26 26 25 23 22 22 22 23 23 23 23 23 22 22 23
13 14 14 15 16 17 18 19 20 20 21 22 23 24 24 25 25 26 26 26 26 27 27 27 27 27 26 26 26 25 24 23 22 22 22 22 22 21 20 21 22 22 22
13 14 15 16 17 18 19 20 21 21 21 22 23 24 24 24 25 26 26 26 26 27 27 27 27 26 25 25 25 24 24 23 21 21 20 20 20 20 20 21 21 21 21
14 14 16 16 18 19 19 20 21 21 21 22 23 23 24 25 26 26 27 27 28 28 28 28 28 27 26 25 25 24 23 23 22 21 20 20 20 21 20 20 19 19 20
14 15 16 17 18 19 20 20 20 21 21 22 22 23 24 25 26 27 28 28 28 28 29 29 28 27 27 26 25 24 23 23 22 21 21 21 21 20 19 19 19 18 18
14 15 16 17 18 19 20 20 21 21 22 22 22 23 25 25 26 28 29 29 28 29 30 30 29 28 27 27 26 25 24 23 23 22 22 21 21 20 20 19 19 18 18
14 15 16 17 18 18 19 20 21 22 22 23 22 23 25 26 27 28 29 29 29 30 31 31 30 29 27 27 26 25 24 24 24 23 23 22 21 20 20 19 18 18 18
14 15 16 16 17 18 19 21 22 22 23 23 22 23 25 26 27 28 29 29 30 30 31 32 31 29 28 26 26 26 25 25 24 24 24 23 22 20 19 18 18 17 17
14 15 15 16 17 18 19 21 22 22 23 23 23 24 25 26 27 28 29 30 31 31 32 32 32 30 29 27 26 26 26 25 25 24 24 23 22 20 19 18 18 17 16
13 13 14 15 16 18 20 21 22 22 22 22 23 24 25 26 27 28 29 31 32 32 32 32 32 31 30 28 27 27 26 26 25 25 24 24 23 21 20 18 17 16 15
12 13 14 15 16 18 20 21 22 22 21 22 23 24 26 27 28 29 30 31 32 32 32 32 32 32 31 29 28 27 27 26 26 26 25 24 22 21 20 19 18 17 16
11 12 13 15 16 18 19 21 21 21 21 22 23 24 26 28 28 28 29 31 31 32 33 33 32 33 33 32 30 28 27 26 26 26 26 25 23 22 21 20 19 18 18
11 12 13 14 15 16 18 19 20 21 22 22 24 25 26 27 28 28 29 30 31 32 33 33 33 33 33 33 32 30 29 28 27 27 26 25 24 23 21 21 20 19 19
11 11 12 13 14 15 17 18 20 21 22 23 24 25 26 27 28 28 29 31 31 32 33 34 34 34 34 33 32 32 31 30 28 28 26 25 24 23 22 21 21 19 18
Wind_Direction
305 304 305 308 308 307 307 306 308 309 309 309 308 308 306 306 306 304 302 300 300 298 297 296 296 293 290 287 286 284 281 279 277 275 272 269 266 264 263 262 263 263 261
307 306 307 310 312 312 311 309 310 309 310 311 311 310 309 309 309 306 306 305 304 301 299 299 298 296 293 290 288 286 283 281 278 274 272 270 268 266 264 264 265 264 262
310 308 309 311 315 315 313 313 314 313 315 317 316 314 313 314 313 310 309 309 307 305 303 302 302 298 296 293 290 289 287 283 280 277 274 272 270 269 267 266 265 264 262
316 314 314 314 316 319 317 317 317 316 317 319 319 318 318 318 317 315 312 312 310 309 308 307 305 301 300 296 293 292 290 286 282 280 277 275 274 272 270 269 266 264 262
320 320 319 320 322 322 321 319 320 320 319 320 321 321 321 322 321 319 317 316 314 312 312 312 310 306 305 303 300 297 294 290 288 285 282 278 276 274 272 270 267 263 260
325 324 324 325 327 326 323 322 321 323 323 324 324 324 324 324 324 322 321 320 317 316 314 313 312 312 311 310 307 303 300 295 292 289 286 281 279 277 275 271 268 266 263
330 328 327 327 327 328 326 326 325 325 327 327 326 326 327 328 327 325 324 323 320 319 318 316 315 315 315 314 311 307 303 300 296 292 289 287 283 280 277 274 272 269 266
333 333 330 329 329 330 330 330 330 331 332 332 331 332 332 331 331 329 327 324 322 323 322 322 320 317 316 315 313 312 308 304 300 296 292 290 288 284 282 278 275 271 270
336 337 337 335 336 334 332 330 333 336 338 338 335 333 334 335 334 332 329 327 325 324 324 324 322 320 319 316 314 313 310 307 302 297 294 292 289 286 284 281 278 274 272
338 338 340 339 337 336 336 336 336 338 340 339 337 335 335 336 335 333 330 328 327 326 325 323 321 321 321 319 316 312 310 307 303 299 297 294 292 289 286 284 280 277 275
340 339 339 339 338 339 340 338 337 339 340 338 338 337 336 336 335 333 331 330 329 328 325 323 321 320 319 319 317 314 311 308 305 301 299 297 295 292 290 288 285 281 278
344 343 343 344 344 344 342 340 339 339 339 338 338 338 338 338 338 336 334 333 331 329 328 326 324 322 320 320 318 316 314 310 307 304 302 302 300 298 295 292 288 284 281
345 345 346 346 346 345 342 340 339 339 338 338 338 338 338 339 339 338 338 336 335 332 330 329 329 328 326 324 322 319 317 315 311 307 304 303 301 300 296 293 289 286 283
345 345 345 345 346 344 342 340 339 339 339 339 338 339 341 341 341 341 341 340 340 338 337 337 336 333 331 330 328 326 323 320 315 311 309 307 306 305 302 298 294 290 287
343 344 344 345 344 343 341 340 340 340 340 340 341 342 344 344 345 345 345 344 343 343 343 342 340 338 335 334 333 332 330 327 323 320 316 314 312 310 307 303 299 294 291
340 342 343 344 343 343 343 342 342 342 342 343 344 345 347 347 347 347 347 345 345 345 344 342 342 341 340 339 338 336 334 331 329 327 324 320 318 316 313 309 305 300 294
340 341 342 344 345 346 347 346 346 345 345 346 347 349 350 351 350 350 349 348 347 346 346 345 344 343 343 342 341 340 338 336 334 330 328 326 323 322 319 315 310 303 297
340 341 342 344 346 347 348 349 349 349 350 349 350 350 352 352 352 351 350 350 350 349 348 347 346 346 345 344 344 342 340 338 337 334 332 329 326 324 322 319 315 310 303
338 340 343 345 346 348 349 350 350 350 351 351 351 351 352 353 353 353 353 353 353 352 351 350 348 347 347 346 346 345 343 340 339 337 335 333 329 324 321 319 317 314 309
338 341 343 345 346 348 349 350 352 352 352 351 351 351 352 354 354 354 355 355 355 354 353 353 352 350 350 349 348 347 346 345 343 341 338 335 333 329 324 322 321 318 313
334 338 341 342 345 346 348 350 352 353 353 353 352 352 353 354 355 355 355 355 355 354 354 354 355 353 351 350 349 349 348 348 346 344 342 340 337 333 329 326 324 322 318
333 337 340 343 346 347 348 350 351 353 354 355 355 355 355 355 356 356 356 356 356 355 355 355 356 355 353 352 351 349 349 348 347 346 344 342 341 337 334 331 329 325 320
332 337 339 343 346 348 350 352 354 356 357 357 356 355 355 356 356 357 357 357 357 357 357 357 357 357 355 353 352 350 349 349 348 347 346 345 343 340 337 335 333 330 326
331 336 338 341 345 348 351 353 356 358 359 358 357 356 356 356 358 358 359 359 359 359 360 359 359 358 357 355 354 353 351 348 347 347 346 344 344 342 340 337 334 332 329
329 334 336 339 344 349 352 355 358 359 359 359 358 357 357 358 359 359 358 358 359 360 360 360 359 358 357 356 356 355 353 349 347 347 345 345 343 342 341 340 336 332 329
322 328 332 338 344 348 351 354 356 357 358 359 359 359 359 359 359 359 358 358 359 359 359 359 358 358 357 356 356 355 354 351 350 348 347 346 345 343 342 341 340 337 334
Height
5742 5739 5738 5736 5735 5733 5731 5730 5728 5726 5725 5723 5720 5717 5715 5712 5709 5706 5703 5700 5697 5694 5691 5688 5685 5683 5680 5678 5675 5673 5672 5671 5671 5670 5669 5668 5668 5669 5669 5670 5671 5672 5673
5737 5736 5734 5733 5731 5729 5727 5725 5723 5722 5720 5718 5715 5712 5709 5706 5703 5700 5697 5694 5691 5688 5685 5681 5678 5675 5672 5670 5667 5665 5664 5662 5661 5661 5660 5659 5659 5659 5659 5660 5660 5661 5662
5734 5732 5731 5729 5728 5726 5723 5721 5719 5717 5716 5713 5710 5707 5704 5701 5697 5694 5691 5688 5685 5681 5678 5675 5671 5668 5665 5662 5660 5657 5655 5654 5653 5652 5651 5650 5650 5649 5649 5650 5650 5651 5652
5731 5730 5728 5727 5725 5722 5720 5718 5716 5714 5712 5709 5706 5703 5700 5696 5693 5689 5686 5682 5679 5675 5672 5669 5665 5661 5658 5655 5652 5650 5647 5646 5644 5644 5643 5642 5641 5640 5640 5640 5640 5640 5641
5729 5727 5725 5724 5722 5720 5718 5716 5713 5711 5708 5705 5702 5699 5696 5692 5689 5685 5681 5678 5674 5670 5666 5663 5659 5655 5651 5648 5646 5643 5640 5639 5637 5635 5634 5633 5632 5632 5631 5631 5631 5631 5632
5727 5725 5723 5721 5719 5717 5715 5713 5710 5708 5705 5702 5699 5696 5692 5688 5685 5681 5677 5673 5669 5665 5661 5657 5654 5649 5646 5643 5639 5636 5633 5631 5629 5627 5626 5625 5624 5623 5622 5622 5621 5622 5623
5726 5724 5722 5720 5717 5715 5713 5710 5707 5705 5702 5699 5696 5692 5688 5685 5681 5677 5673 5668 5664 5660 5656 5652 5649 5644 5641 5637 5634 5630 5627 5624 5621 5619 5618 5616 5615 5614 5613 5613 5612 5612 5612
5724 5722 5720 5718 5715 5713 5710 5708 5705 5702 5699 5696 5692 5689 5685 5681 5677 5673 5668 5664 5660 5656 5652 5647 5643 5639 5635 5632 5628 5624 5621 5617 5614 5612 5610 5608 5606 5605 5604 5603 5603 5603 5603
5723 5721 5718 5716 5713 5711 5708 5706 5703 5700 5697 5693 5690 5686 5682 5678 5673 5669 5664 5660 5655 5651 5647 5642 5638 5634 5630 5626 5622 5618 5615 5611 5608 5605 5603 5600 5598 5597 5595 5594 5593 5593 5593
5721 5719 5717 5714 5712 5709 5707 5704 5701 5698 5694 5691 5687 5683 5679 5675 5670 5665 5660 5656 5651 5646 5642 5638 5633 5628 5624 5619 5615 5612 5608 5605 5601 5598 5595 5593 5591 5589 5587 5585 5584 5584 5583
5720 5718 5715 5713 5710 5708 5705 5702 5699 5696 5692 5689 5685 5681 5676 5671 5666 5661 5656 5651 5646 5642 5637 5633 5628 5623 5618 5613 5609 5605 5601 5598 5594 5591 5588 5586 5583 5581 5579 5577 5576 5575 5574
5719 5716 5714 5712 5709 5706 5703 5700 5697 5694 5690 5686 5682 5678 5673 5668 5662 5657 5652 5647 5642 5637 5632 5627 5622 5617 5612 5607 5602 5598 5594 5590 5587 5584 5581 5579 5576 5574 5571 5569 5567 5566 5565
5718 5716 5713 5710 5708 5705 5702 5698 5695 5691 5688 5684 5679 5675 5670 5664 5659 5653 5648 5643 5637 5632 5627 5622 5616 5611 5605 5601 5596 5591 5587 5583 5580 5577 5574 5572 5569 5566 5564 5562 5560 5558 5557
5717 5715 5712 5709 5706 5703 5700 5697 5693 5689 5685 5681 5676 5671 5666 5661 5656 5650 5645 5639 5634 5628 5622 5617 5611 5605 5600 5595 5590 5585 5581 5577 5573 5570 5568 5565 5562 5559 5557 5554 5552 5551 5549
5716 5714 5711 5708 5705 5702 5698 5694 5690 5686 5682 5677 5673 5668 5663 5658 5653 5647 5642 5636 5630 5624 5619 5613 5607 5601 5596 5591 5586 5581 5576 5572 5568 5565 5561 5558 5555 5552 5550 5547 5545 5543 5542
5715 5712 5710 5707 5703 5700 5696 5692 5687 5683 5679 5674 5670 5665 5660 5655 5650 5645 5639 5633 5627 5621 5616 5610 5604 5598 5593 5587 5582 5577 5572 5568 5564 5560 5556 5553 5549 5546 5543 5540 5538 5536 5534
5713 5711 5708 5705 5701 5698 5694 5689 5685 5681 5676 5672 5667 5663 5658 5653 5648 5642 5636 5630 5625 5619 5613 5607 5601 5595 5589 5584 5579 5574 5569 5564 5560 5556 5552 5548 5544 5540 5537 5534 5532 5530 5528
5712 5709 5706 5703 5699 5695 5692 5688 5683 5679 5675 5670 5666 5661 5656 5651 5646 5640 5634 5628 5622 5616 5610 5604 5598 5592 5586 5581 5575 5570 5565 5560 5556 5552 5547 5543 5539 5535 5532 5529 5526 5524 5521
5710 5707 5704 5701 5697 5694 5690 5686 5682 5677 5673 5668 5664 5660 5655 5650 5644 5638 5632 5626 5621 5615 5608 5602 5595 5589 5583 5578 5572 5567 5562 5557 5552 5548 5543 5539 5535 5531 5527 5524 5521 5518 5515
5708 5705 5702 5699 5696 5692 5689 5684 5680 5676 5671 5667 5663 5658 5654 5648 5643 5637 5631 5625 5619 5613 5606 5599 5593 5586 5581 5575 5570 5564 5559 5554 5549 5544 5539 5535 5530 5526 5523 5519 5516 5513 5510
5707 5704 5701 5698 5694 5691 5687 5683 5679 5674 5670 5665 5661 5657 5652 5647 5641 5636 5630 5624 5617 5611 5604 5598 5591 5584 5578 5573 5567 5562 5556 5551 5546 5541 5536 5531 5526 5522 5519 5515 5511 5508 5505
5705 5702 5699 5696 5693 5690 5686 5681 5677 5673 5668 5664 5660 5655 5651 5645 5640 5634 5628 5622 5616 5609 5603 5596 5589 5583 5576 5571 5565 5559 5554 5548 5543 5538 5533 5528 5523 5519 5515 5511 5507 5504 5501
5703 5700 5698 5695 5692 5688 5684 5680 5676 5671 5667 5663 5659 5654 5649 5644 5639 5633 5627 5621 5614 5608 5601 5595 5588 5581 5575 5568 5563 5557 5552 5546 5541 5535 5530 5525 5520 5515 5511 5508 5504 5501 5498
5701 5699 5696 5694 5691 5687 5683 5680 5675 5671 5667 5663 5658 5654 5649 5643 5638 5632 5626 5620 5613 5607 5600 5593 5587 5580 5573 5567 5561 5555 5549 5543 5538 5533 5527 5522 5517 5513 5508 5504 5501 5497 5494
5699 5697 5695 5692 5689 5686 5683 5679 5675 5671 5667 5662 5658 5653 5648 5642 5637 5631 5625 5619 5613 5606 5599 5592 5586 5579 5572 5565 5559 5553 5547 5541 5535 5530 5524 5519 5514 5510 5505 5501 5497 5494 5490
5697 5695 5693 5691 5688 5685 5682 5679 5675 5671 5666 5662 5657 5652 5647 5642 5636 5630 5624 5618 5612 5605 5599 5592 5585 5578 5571 5564 5558 5551 5545 5539 5533 5527 5521 5516 5511 5507 5502 5498 5494 5490 5486